#timestamp,LO_Frequency,Hit,StdDev 
1701903615.8,286046998.5,P
1701903635.6,286046996.9,P
1701903655.5,286046996.6,Y
1701903675.3,286047001.1,P
1701903695.1,286047000.8,N
1701903715.9,286047000.2,N
1701903735.7,286047000.6,N
1701903785.6,286047000.8,E
1701903795.5,286046998.4,N
1701903815.4,286046998.6,P
1701903835.2,286047000.6,P
1701903855.0,286047000.1,N
1701903855.9,286047000.1,N
1701903875.8,286047000.4,N
1701903895.6,286047000.0,N
1701903915.4,286047000.7,N
1701903935.3,286046998.5,N
1701903955.1,286046998.7,N
1701903975.9,286047001.2,N
1701903995.7,286047001.1,N
1701904015.5,286047001.2,N
1701904035.4,286046998.3,N
1701904055.2,286046998.6,N
1701904075.0,286046998.6,N
1701904075.9,286046998.6,N
1701904095.8,286046998.2,N
1701904115.6,286047000.8,N
1701904135.5,286046999.9,N
1701904155.3,286047000.6,N
1701904175.1,286046999.9,N
1701904195.9,286047000.7,N
1701904215.7,286046999.9,N
1701904235.5,286047001.2,N
1701904255.4,286046998.9,N
1701904275.2,286046998.8,N
1701904295.1,286046999.3,N
1701904296.0,286046999.3,N
1701904315.8,286046999.6,N
1701904335.6,286046999.1,N
1701904355.5,286046999.4,N
1701904375.3,286046998.8,N
1701904395.1,286046999.2,N
1701904415.9,286046996.9,Y
1701904435.7,286046999.0,P
1701904455.6,286046999.4,N
1701904475.4,286046999.4,N
1701904495.2,286046996.5,Y
1701904515.1,286046998.3,P
1701904516.0,286046998.3,P
1701904535.8,286046998.6,N
1701904555.7,286046999.3,N
1701904575.5,286046999.0,N
1701904595.3,286046996.9,Y
1701904615.2,286046998.8,P
1701904635.0,286046998.3,P
1701904635.9,286046998.3,P
1701904655.8,286046998.1,Y
1701904675.6,286047002.3,P
1701904725.5,286047000.1,E
1701904735.4,286047000.6,N
1701904755.2,286047002.7,P
1701904775.1,286046999.8,N
1701904776.0,286046999.8,N
1701904795.8,286047000.6,N
1701904815.6,286047000.6,N
1701904835.5,286047002.7,N
1701904855.3,286046999.8,N
1701904875.1,286047002.1,N
1701904895.9,286047001.6,N
1701904915.7,286047000.2,N
1701904935.6,286047002.5,N
1701904955.4,286046999.7,N
1701904975.2,286046999.9,N
1701904995.1,286046999.7,N
1701904996.0,286046999.7,N
1701905015.8,286047002.4,N
1701905035.7,286047000.1,N
1701905055.5,286047002.1,N
1701905075.3,286047000.9,N
1701905095.2,286047000.1,N
1701905115.9,286047000.1,N
1701905135.7,286047000.9,N
1701905155.6,286047000.0,N
1701905175.4,286046998.7,N
1701905195.3,286047001.0,N
1701905215.1,286047001.1,N
1701905216.0,286047001.1,N
1701905235.8,286047002.7,N
1701905255.7,286047000.2,N
1701905275.5,286047000.6,N
1701905295.3,286047000.0,N
1701905315.2,286047000.8,N
1701905335.0,286047000.7,N
1701905335.9,286047000.7,N
1701905355.8,286047002.8,N
1701905375.6,286047000.1,N
1701905395.4,286047001.5,N
1701905415.3,286047001.7,N
1701905435.1,286047002.1,N
1701905455.8,286047001.5,N
1701905475.7,286047002.8,N
1701905495.5,286047001.6,N
1701905515.4,286047001.8,N
1701905535.2,286047003.8,Y
1701905555.0,286047001.5,P
1701905555.9,286047001.5,P
1701905575.8,286047002.6,P
1701905595.6,286047002.3,Y
1701905615.4,286046998.5,P
1701905635.3,286047001.2,N
1701905655.1,286046998.5,N
1701905675.9,286047001.1,N
1701905695.7,286047000.8,N
1701905715.5,286047000.2,N
1701905735.4,286047002.7,N
1701905755.2,286046999.7,N
1701905775.1,286047002.0,N
1701905776.0,286047002.0,N
1701905795.8,286047002.2,N
1701905815.6,286047001.6,N
1701905835.5,286047002.1,N
1701905855.3,286047001.9,N
1701905875.1,286047001.3,N
1701905895.9,286047001.8,N
1701905915.7,286047001.8,N
1701905935.6,286047003.5,N
1701905955.4,286047003.8,N
1701905975.2,286047003.3,N
1701905995.1,286047003.1,N
1701905996.0,286047011.9,Y
1701906015.8,286047002.5,P
1701906035.7,286047002.7,P
1701906055.5,286047001.8,P
1701906075.3,286047001.3,N
1701906095.2,286047003.1,Y
1701906115.0,286047002.7,P
1701906115.9,286047002.7,P
1701906135.8,286047002.2,P
1701906155.6,286047002.1,Y
1701906175.4,286046998.5,P
1701906195.3,286046997.2,N
1701906215.1,286046996.9,N
1701906235.9,286046998.6,N
1701906255.7,286047000.6,N
1701906275.5,286047000.9,N
1701906295.4,286047002.1,N
1701906315.2,286047002.5,N
1701906335.0,286047002.7,N
1701906335.9,286047002.7,N
1701906355.8,286047001.9,N
1701906375.6,286047004.3,N
1701906395.5,286047001.3,N
1701906415.3,286047001.5,N
1701906435.1,286047001.7,N
1701906455.9,286047001.3,N
1701906475.7,286047001.7,N
1701906495.5,286047001.8,N
1701906515.4,286047004.1,N
1701906535.2,286047004.0,N
1701906555.1,286047004.4,N
1701906556.0,286047004.4,N
1701906575.8,286047002.2,N
1701906595.6,286047002.2,N
1701906615.5,286047002.7,N
1701906635.3,286047002.1,N
1701906655.2,286047002.2,N
1701906675.9,286047004.4,N
1701906695.7,286047003.7,N
1701906715.6,286047003.6,N
1701906735.4,286047004.0,N
1701906755.3,286047003.4,N
1701906775.1,286047003.9,N
1701906795.8,286047003.1,N
1701906815.7,286047002.9,N
1701906835.5,286047005.7,Y
1701906855.4,286047002.2,P
1701906875.2,286047001.3,P
1701906895.0,286047001.5,N
1701906895.9,286047001.5,N
1701906915.8,286047002.4,Y
1701906935.6,286047000.7,P
1701906955.4,286047000.7,N
1701906975.3,286046998.6,N
1701906995.1,286047000.0,N
1701907015.9,286047000.7,N
1701907035.7,286047002.5,N
1701907055.5,286047001.3,N
1701907075.4,286047002.3,N
1701907095.2,286047002.3,N
1701907115.0,286047001.4,N
1701907115.9,286047001.4,N
1701907135.8,286047004.4,Y
1701907155.6,286047002.2,P
1701907175.5,286047001.5,N
1701907195.3,286047002.8,P
